Overview Statistics Trail Chart Weather Telemetry Raw packets
 

This is the latest recevied weather packets stored in our database for station/object KB1JL-13. If no packets are shown the sender has not sent any weather packets the latest 10 day(s).

<< 22 23 24 25 26 27 28 >>
Time Temp. Humidity Pressure Rain* Wind** Luminosity Snow
1788454005 24.44° C 88% 1025 hPa 0 mm - 304 W/m² -
1788453702 24.44° C 88% 1025 hPa 0 mm - 258 W/m² -
1788453410 23.89° C 90% 1025.4 hPa 0 mm - 561 W/m² -
1788453093 23.89° C 92% 1025.4 hPa 0 mm - 190 W/m² -
1788452789 23.89° C 92% 1025.4 hPa 0 mm - 327 W/m² -
1788452485 23.89° C 92% 1025.4 hPa 0 mm - 198 W/m² -
1788452185 23.89° C 92% 1026.1 hPa 0 mm - 195 W/m² -
1788451880 23.33° C 92% 1025.7 hPa 0 mm - 216 W/m² -
1788451575 23.89° C 92% 1025.7 hPa 0 mm - 107 W/m² -
1788451269 23.89° C 93% 1026.1 hPa 0 mm - 137 W/m² -
1788450968 23.89° C 92% 1025.7 hPa 0 mm - 158 W/m² -
1788450664 23.89° C 92% 1025.7 hPa 0 mm - 296 W/m² -
1788450360 23.33° C 94% 1026.1 hPa 0 mm - 403 W/m² -
1788450056 23.33° C 95% 1026.1 hPa 0 mm - 210 W/m² -
1788449751 22.78° C 96% 1026.1 hPa 0 mm - 227 W/m² -
1788449447 22.78° C 96% 1025.7 hPa 0 mm - 217 W/m² -
1788449142 22.78° C 95% 1026.1 hPa 0 mm - 92 W/m² -
1788448839 22.78° C 94% 1026.1 hPa 0 mm - 112 W/m² -
1788448538 23.33° C 95% 1026.1 hPa 0 mm - 230 W/m² -
1788448233 22.78° C 97% 1026.1 hPa 0 mm - 212 W/m² -
1788447932 22.78° C 99% 1026.1 hPa 0 mm - 173 W/m² -
1788447628 22.22° C 99% 1025.7 hPa 0 mm - 256 W/m² -
1788447322 22.22° C 99% 1026.1 hPa 0 mm - 328 W/m² -
1788447018 21.67° C 99% 1026.1 hPa 0 mm - 414 W/m² -
1788446716 21.67° C 99% 1025.7 hPa 0 mm - 349 W/m² -

* Rain latest hour (hover to see other rain measurements)
** Current wind speed in m/s (hover to see current wind gust speed)